TimeEST,TemperatureF,Dew PointF,Humidity,Sea Level PressureIn,VisibilityMPH,Wind Direction,Wind SpeedMPH,Gust SpeedMPH,PrecipitationIn,Events,Conditions,WindDirDegrees,DateUTC
12:10 AM,41.0,41.0,100,29.61,8.0,WSW,4.6,-,N/A,,Mostly Cloudy,240,2013-02-20 05:10:00
12:17 AM,41.0,41.0,100,29.61,8.0,WSW,5.8,-,N/A,,Mostly Cloudy,250,2013-02-20 05:17:00
12:56 AM,39.9,39.0,97,29.62,10.0,West,9.2,-,N/A,,Mostly Cloudy,260,2013-02-20 05:56:00
1:24 AM,39.2,37.4,93,29.63,10.0,WSW,8.1,-,N/A,,Mostly Cloudy,240,2013-02-20 06:24:00
1:56 AM,37.9,36.0,93,29.63,10.0,WSW,8.1,-,N/A,,Scattered Clouds,250,2013-02-20 06:56:00
2:56 AM,37.0,30.9,79,29.62,10.0,West,13.8,-,N/A,,Clear,260,2013-02-20 07:56:00
3:52 AM,35.6,-9999,N/A,29.63,10.0,WNW,10.4,-,N/A,,Mostly Cloudy,290,2013-02-20 08:52:00
3:56 AM,37.0,-9999,N/A,29.64,10.0,WNW,11.5,-,N/A,,Overcast,300,2013-02-20 08:56:00
4:22 AM,35.6,30.2,81,29.65,10.0,NW,10.4,-,N/A,,Overcast,320,2013-02-20 09:22:00
4:56 AM,36.0,30.9,82,29.65,10.0,NW,6.9,-,N/A,,Overcast,310,2013-02-20 09:56:00
5:56 AM,35.6,28.4,75,29.67,9.0,WNW,9.2,-,N/A,,Overcast,290,2013-02-20 10:56:00
6:56 AM,34.0,25.0,70,29.70,10.0,WNW,18.4,25.3,N/A,,Overcast,300,2013-02-20 11:56:00
7:05 AM,33.8,24.8,70,29.71,10.0,NW,19.6,26.5,N/A,,Overcast,310,2013-02-20 12:05:00
7:56 AM,33.1,19.0,56,29.73,10.0,WNW,15.0,24.2,N/A,,Overcast,300,2013-02-20 12:56:00
8:56 AM,33.1,16.0,50,29.75,10.0,WNW,18.4,26.5,N/A,,Mostly Cloudy,300,2013-02-20 13:56:00
9:56 AM,35.1,14.0,42,29.74,10.0,West,18.4,26.5,N/A,,Partly Cloudy,280,2013-02-20 14:56:00
10:56 AM,37.0,14.0,39,29.74,10.0,West,17.3,24.2,N/A,,Mostly Cloudy,270,2013-02-20 15:56:00
11:56 AM,35.1,12.9,40,29.73,10.0,WNW,12.7,24.2,N/A,,Overcast,300,2013-02-20 16:56:00
12:56 PM,36.0,14.0,41,29.72,10.0,WNW,17.3,24.2,N/A,,Mostly Cloudy,290,2013-02-20 17:56:00
1:56 PM,33.8,12.2,41,29.72,10.0,West,18.4,26.5,N/A,,Mostly Cloudy,280,2013-02-20 18:56:00
2:56 PM,33.1,12.0,42,29.73,10.0,West,20.7,27.6,N/A,,Overcast,270,2013-02-20 19:56:00
3:56 PM,33.8,10.4,38,29.74,10.0,WNW,19.6,27.6,N/A,,Overcast,290,2013-02-20 20:56:00
4:56 PM,32.0,10.9,42,29.76,10.0,West,17.3,26.5,N/A,,Overcast,280,2013-02-20 21:56:00
5:56 PM,30.9,10.9,43,29.78,10.0,WNW,13.8,23.0,N/A,,Overcast,290,2013-02-20 22:56:00
6:56 PM,30.0,10.0,43,29.81,10.0,WNW,18.4,33.4,N/A,,Scattered Clouds,290,2013-02-20 23:56:00
7:56 PM,28.0,9.0,45,29.83,10.0,WNW,11.5,-,N/A,,Clear,290,2013-02-21 00:56:00
8:56 PM,28.0,7.0,41,29.84,10.0,West,15.0,23.0,N/A,,Clear,280,2013-02-21 01:56:00
9:56 PM,27.0,9.0,47,29.86,10.0,West,10.4,-,N/A,,Clear,270,2013-02-21 02:56:00
10:56 PM,26.1,10.0,51,29.86,10.0,WNW,15.0,-,N/A,,Clear,290,2013-02-21 03:56:00
11:56 PM,26.1,10.0,51,29.88,10.0,West,10.4,-,N/A,,Clear,280,2013-02-21 04:56:00